EW9968 Weather Reports


time (UTC)temp
F
wind
direction
speed
knots
gust
knots
rain 1hr
in
rain 24hr
in
rain mn
in
humidity
%
barometer
mb
20260508071510 0 0.0 0.0 0.00 0.00 0.00 1007.5
20260508070006 0 0.0 0.0 0.00 0.00 0.00 1007.3
20260508064502 0 0.0 0.0 0.00 0.00 0.00 1007.4
20260508063057 0 0.0 0.0 0.00 0.00 0.00 1007.6
20260508061600 0 0.0 0.0 0.00 0.00 0.00 1007.6
20260508060049 0 0.0 0.0 0.00 0.00 0.00 1007.5
20260508054604 0 0.0 0.0 0.00 0.00 0.00 1007.8
20260508053041 0 0.0 0.0 0.00 0.00 0.00 1007.9
20260508051535 0 0.0 0.0 0.00 0.00 0.00 1008.1
20260508050038 0 0.0 0.0 0.00 0.00 0.00 1008.2
20260508044526 0 0.0 0.0 0.00 0.00 0.00 1008.3
20260508043022 0 0.0 0.0 0.00 0.00 0.00 1008.2
20260508041518 0 0.0 0.0 0.00 0.00 0.00 1008.2
20260508040019 0 242 0.0 0.0 0.00 0.00 0.00 1008.2
20260508034517 45 39 0.0 0.0 0.00 0.00 0.00 71 1008.4
20260508033017 45 232 0.0 0.0 0.00 0.00 0.00 69 1008.1
20260508031509 46 232 0.0 0.0 0.00 0.00 0.00 67 1008.1
20260508030008 46 232 0.0 0.0 0.00 0.00 0.00 66 1008.1
20260508024507 46 232 0.0 0.0 0.00 0.00 0.00 65 1008.2
20260508023006 47 232 0.0 0.0 0.00 0.00 0.00 64 1008.2
20260508021501 48 232 0.0 0.0 0.00 0.00 0.00 61 1008.3
20260508020003 49 232 0.0 0.0 0.00 0.00 0.00 60 1008.2
20260508014602 50 232 0.0 0.0 0.00 0.00 0.00 57 1008.2
20260508013109 50 213 0.0 0.0 0.00 0.00 0.00 57 1007.9
20260508011602 51 245 0.0 0.0 0.00 0.00 0.00 56 1007.7
20260508010057 52 239 0.0 0.0 0.00 0.00 0.00 53 1007.5
20260508004600 52 255 0.0 0.0 0.00 0.00 0.00 53 1007.4
20260508003106 53 266 0.0 0.0 0.00 0.00 0.00 50 1007.0
20260508001556 54 269 0.0 0.0 0.00 0.00 0.00 49 1006.9
20260508000055 54 244 0.0 0.0 0.00 0.00 0.00 48 1006.9
20260507234555 55 239 0.0 0.0 0.00 0.00 0.00 45 1006.8
20260507233054 56 293 0.0 0.0 0.00 0.00 0.00 45 1006.7
20260507231558 56 266 0.0 0.0 0.00 0.00 0.00 42 1006.5
20260507230056 57 262 0.0 0.0 0.00 0.00 0.00 42 1006.5
20260507224601 58 8 0.0 4.3 0.00 0.02 0.00 41 1006.3
20260507223052 58 280 0.0 0.0 0.00 0.02 0.00 42 1006.1
20260507221551 59 276 0.0 0.0 0.00 0.02 0.00 40 1006.0
20260507220051 60 281 0.0 0.0 0.00 0.02 0.00 37 1006.0
20260507214550 60 250 0.0 0.0 0.00 0.02 0.00 37 1005.8
20260507213052 61 347 0.0 0.0 0.00 0.02 0.00 38 1005.5
20260507211552 60 231 0.0 0.0 0.00 0.02 0.00 38 1005.4
20260507210113 61 311 0.0 0.0 0.00 0.02 0.00 37 1005.5
20260507204555 61 199 0.0 0.0 0.00 0.04 0.00 37 1005.4
20260507203148 61 324 0.0 1.7 0.00 0.04 0.00 36 1005.4
20260507201546 62 122 0.0 0.9 0.00 0.04 0.00 36 1005.2
20260507200100 63 17 0.0 5.2 0.00 0.04 0.00 36 1005.4
20260507194543 63 260 1.7 5.2 0.00 0.07 0.00 35 1005.5
20260507193105 63 281 0.9 6.1 0.00 0.07 0.00 35 1005.7
20260507191545 63 41 0.0 0.0 0.00 0.07 0.00 38 1005.8
20260507190040 65 135 0.0 0.0 0.00 0.07 0.00 37 1006.1
20260507184536 64 233 1.7 4.3 0.00 0.08 0.00 35 1006.1
20260507183039 64 51 0.0 0.0 0.00 0.08 0.00 35 1006.2
20260507181533 64 37 0.0 1.7 0.00 0.08 0.00 36 1006.6
20260507180031 65 278 0.9 5.2 0.00 0.08 0.00 36 1006.3
20260507174529 64 20 0.9 4.3 0.00 0.08 0.00 31 1006.5
20260507173027 63 289 0.9 4.3 0.00 0.08 0.00 32 1006.3
20260507171526 63 238 0.0 3.5 0.00 0.08 0.00 33 1006.3
20260507170126 64 323 0.0 1.7 0.00 0.08 0.00 39 1006.5
20260507164523 63 274 0.0 5.2 0.00 0.08 0.00 43 1006.6
20260507163022 63 223 0.0 3.5 0.00 0.08 0.00 42 1006.7
20260507161522 62 205 0.0 3.5 0.00 0.08 0.00 45 1007.0
20260507160030 62 231 0.9 2.6 0.00 0.08 0.00 46 1007.0
20260507154517 62 322 0.0 0.0 0.00 0.08 0.00 48 1007.1
20260507153020 61 210 0.0 0.0 0.00 0.08 0.00 56 1007.0
20260507151512 59 290 0.0 0.0 0.00 0.08 0.00 59 1007.2
20260507150011 60 259 0.0 0.0 0.00 0.08 0.00 61 1007.4
20260507144520 59 292 0.0 0.0 0.00 0.08 0.00 64 1007.5
20260507143008 59 254 0.0 0.0 0.00 0.08 0.00 65 1007.6
20260507141506 59 266 0.0 0.0 0.00 0.08 0.00 68 1007.5
20260507140006 59 277 0.0 0.0 0.00 0.08 0.00 65 1007.5
20260507134504 57 239 0.0 0.0 0.00 0.08 0.00 68 1007.4
20260507133005 58 125 0.0 0.9 0.00 0.08 0.00 70 1007.3
20260507131600 57 290 0.0 0.9 0.00 0.08 0.00 72 1007.6
20260507130055 56 217 0.0 0.0 0.00 0.08 0.00 74 1007.7
20260507124553 55 279 0.0 0.0 0.00 0.08 0.00 75 1007.8
20260507123051 54 292 0.0 0.0 0.00 0.08 0.00 78 1008.0
20260507121546 53 39 0.0 0.0 0.00 0.08 0.00 82 1008.0
20260507120044 51 265 0.0 0.9 0.00 0.08 0.00 85 1008.0
20260507114550 51 40 0.0 0.0 0.00 0.08 0.00 87 1007.9
20260507113038 49 46 0.0 0.0 0.00 0.08 0.00 89 1007.8
20260507111538 48 236 0.0 0.0 0.00 0.08 0.00 90 1007.7
20260507110032 0 0.0 0.0 0.00 0.08 0.00 1007.5
20260507104525 0 0.0 0.0 0.00 0.08 0.00 1007.8
20260507103023 0 0.0 0.0 0.00 0.08 0.00 1007.3
20260507101518 0 0.0 0.0 0.00 0.08 0.00 1006.8
20260507100014 0 0.0 0.0 0.00 0.08 0.00 1007.0
20260507094508 0 0.0 0.0 0.00 0.08 0.00 1006.8
20260507093004 0 0.0 0.0 0.00 0.08 0.00 1007.3
20260507091559 0 0.0 0.0 0.00 0.08 0.00 1007.5
20260507090106 0 0.0 0.0 0.00 0.08 0.00 1007.7
20260507084551 0 0.0 0.0 0.00 0.08 0.00 1007.7
20260507083047 0 0.0 0.0 0.00 0.08 0.00 1007.1
20260507081541 0 0.0 0.0 0.00 0.08 0.00 1007.0
20260507080039 0 0.0 0.0 0.00 0.08 0.00 1007.0
20260507074533 0 0.0 0.0 0.00 0.08 0.00 1007.1
20260507073030 0 0.0 0.0 0.00 0.08 0.00 1007.1